TimeEDT,TemperatureF,Dew PointF,Humidity,Sea Level PressureIn,VisibilityMPH,Wind Direction,Wind SpeedMPH,Gust SpeedMPH,PrecipitationIn,Events,Conditions,WindDirDegrees,DateUTC
12:15 AM,64.4,62.6,94,30.00,10.0,Calm,Calm,-,N/A,,Clear,0,2012-10-03 04:15:00
12:35 AM,64.4,62.6,94,30.01,10.0,Calm,Calm,-,N/A,,Scattered Clouds,0,2012-10-03 04:35:00
12:55 AM,64.4,62.6,94,30.01,10.0,Calm,Calm,-,N/A,,Scattered Clouds,0,2012-10-03 04:55:00
1:15 AM,62.6,62.6,100,30.01,10.0,Calm,Calm,-,N/A,,Scattered Clouds,0,2012-10-03 05:15:00
1:35 AM,64.4,62.6,94,30.01,10.0,Calm,Calm,-,N/A,,Scattered Clouds,0,2012-10-03 05:35:00
1:55 AM,64.4,62.6,94,30.01,10.0,Calm,Calm,-,N/A,,Scattered Clouds,0,2012-10-03 05:55:00
2:15 AM,64.4,62.6,94,30.02,10.0,Calm,Calm,-,N/A,,Scattered Clouds,0,2012-10-03 06:15:00
2:35 AM,62.6,62.6,100,30.03,10.0,Calm,Calm,-,N/A,,Scattered Clouds,0,2012-10-03 06:35:00
2:55 AM,64.4,62.6,94,30.03,10.0,Calm,Calm,-,N/A,,Mostly Cloudy,0,2012-10-03 06:55:00
3:15 AM,64.4,62.6,94,30.03,10.0,Calm,Calm,-,N/A,,Mostly Cloudy,0,2012-10-03 07:15:00
3:35 AM,62.6,62.6,100,30.03,10.0,Calm,Calm,-,N/A,,Scattered Clouds,0,2012-10-03 07:35:00
3:55 AM,62.6,62.6,100,30.03,10.0,Calm,Calm,-,N/A,,Scattered Clouds,0,2012-10-03 07:55:00
4:15 AM,64.4,62.6,94,30.03,10.0,Calm,Calm,-,N/A,,Mostly Cloudy,0,2012-10-03 08:15:00
4:35 AM,64.4,62.6,94,30.03,10.0,Calm,Calm,-,N/A,,Mostly Cloudy,0,2012-10-03 08:35:00
4:55 AM,62.6,62.6,100,30.04,10.0,Calm,Calm,-,N/A,,Scattered Clouds,0,2012-10-03 08:55:00
5:15 AM,64.4,62.6,94,30.05,10.0,Calm,Calm,-,N/A,,Clear,0,2012-10-03 09:15:00
5:35 AM,64.4,62.6,94,30.05,10.0,Calm,Calm,-,N/A,,Scattered Clouds,0,2012-10-03 09:35:00
5:55 AM,62.6,62.6,100,30.05,10.0,Calm,Calm,-,N/A,,Scattered Clouds,0,2012-10-03 09:55:00
6:15 AM,62.6,62.6,100,30.06,10.0,Calm,Calm,-,N/A,,Scattered Clouds,0,2012-10-03 10:15:00
6:35 AM,62.6,62.6,100,30.07,10.0,Calm,Calm,-,N/A,,Scattered Clouds,0,2012-10-03 10:35:00
6:47 AM,64.4,62.6,94,30.07,10.0,Calm,Calm,-,N/A,,Clear,0,2012-10-03 10:47:00
7:47 AM,64.4,62.6,94,30.09,10.0,Calm,Calm,-,N/A,,Clear,0,2012-10-03 11:47:00
8:47 AM,64.4,64.4,100,30.11,10.0,WSW,3.5,-,N/A,,Clear,240,2012-10-03 12:47:00
9:47 AM,66.2,64.4,94,30.14,10.0,WSW,4.6,-,N/A,,Clear,250,2012-10-03 13:47:00
10:47 AM,68.0,64.4,88,30.15,10.0,SW,4.6,-,N/A,,Clear,220,2012-10-03 14:47:00
11:47 AM,69.8,64.4,83,30.15,10.0,SSW,5.8,-,N/A,,Clear,210,2012-10-03 15:47:00
12:47 PM,71.6,64.4,78,30.15,10.0,SSW,5.8,-,N/A,,Clear,200,2012-10-03 16:47:00
1:47 PM,75.2,62.6,65,30.14,10.0,SSW,5.8,-,N/A,,Clear,210,2012-10-03 17:47:00
2:47 PM,75.2,60.8,61,30.12,10.0,South,6.9,-,N/A,,Clear,190,2012-10-03 18:47:00
3:47 PM,73.4,62.6,69,30.13,10.0,WSW,5.8,-,N/A,,Clear,250,2012-10-03 19:47:00
4:47 PM,73.4,62.6,69,30.13,10.0,WSW,3.5,-,N/A,,Clear,240,2012-10-03 20:47:00
5:47 PM,71.6,62.6,73,30.14,10.0,WSW,4.6,-,N/A,,Clear,240,2012-10-03 21:47:00
6:50 PM,69.8,64.4,83,30.16,10.0,Calm,Calm,-,N/A,,Clear,0,2012-10-03 22:50:00
7:47 PM,68.0,64.4,88,30.16,10.0,Calm,Calm,-,N/A,,Clear,0,2012-10-03 23:47:00
8:47 PM,68.0,64.4,88,30.18,10.0,Calm,Calm,-,N/A,,Clear,0,2012-10-04 00:47:00
9:15 PM,66.2,62.6,88,30.18,10.0,SW,3.5,-,N/A,,Clear,220,2012-10-04 01:15:00
9:35 PM,66.2,62.6,88,30.20,10.0,SW,4.6,-,N/A,,Clear,220,2012-10-04 01:35:00
9:55 PM,68.0,62.6,83,30.21,10.0,SW,4.6,-,N/A,,Clear,230,2012-10-04 01:55:00
10:15 PM,68.0,62.6,83,30.21,10.0,SW,3.5,-,N/A,,Clear,230,2012-10-04 02:15:00
10:35 PM,68.0,62.6,83,30.22,10.0,Calm,Calm,-,N/A,,Clear,0,2012-10-04 02:35:00
10:55 PM,66.2,62.6,88,30.22,10.0,Calm,Calm,-,N/A,,Clear,0,2012-10-04 02:55:00
11:15 PM,66.2,62.6,88,30.23,10.0,WSW,3.5,-,N/A,,Clear,240,2012-10-04 03:15:00
11:35 PM,64.4,62.6,94,30.22,10.0,Calm,Calm,-,N/A,,Clear,0,2012-10-04 03:35:00
11:55 PM,64.4,62.6,94,30.23,10.0,SW,3.5,-,N/A,,Clear,230,2012-10-04 03:55:00